Easton, MD

5:34 AM EST on November 25, 2017 (GMT -0500)
Easton / Newnam

Weather History for KESN - December, 2014

Change the Weather History Date:

Tuesday, December 23, 2014

  Actual Average Record
Temperature  
Mean Temperature 47 °F -  
Max Temperature 50 °F 45 °F 69 °F (2015)
Min Temperature 44 °F 27 °F 10 °F (1960)
Degree Days  
Heating Degree Days 18    
Moisture  
Dew Point 47 °F    
Average Humidity 100    
Maximum Humidity 100    
Minimum Humidity 100    
Precipitation  
Precipitation 0.02 in - - ()
Sea Level Pressure  
Sea Level Pressure 30.06 in    
Wind  
Wind Speed 3 mph (NNE)    
Max Wind Speed 12 mph    
Max Gust Speed -    
Visibility 2 miles    
Events Fog , Rain    
Averages and records for this station are not official NWS values.
T = Trace of Precipitation, MM = Missing Value Source: NWS Daily Summary

Daily Weather History Graph

Daily Weather History Graph

Search for Another Location

Airport or City:

Trip Planner

Search our weather history database for the weather conditions in past years. The results will help you decide how hot, cold, wet, or windy it might be!

Date:

Astronomy

Dec. 23, 2014 Rise Set
Actual Time 7:19 AM EST 4:46 PM EST
Civil Twilight 6:49 AM EST 5:16 PM EST
Nautical Twilight 6:16 AM EST 5:50 PM EST
Astronomical Twilight 5:44 AM EST 6:22 PM EST
Moon 8:23 AM EST (12/23) 6:58 PM EST (12/23)
Length of Visible Light 10h 26m
Length of Day
9h 27m
Waxing Crescent, 4% of the Moon is Illuminated
Dec 23
Waxing Crescent
Dec 28
First Quarter
Jan 4
Full
Jan 13
Last Quarter
Jan 20
New

Hourly Weather History & Observations

Time (EST) Temp. Windchill Dew Point Humidity Pressure Visibility Wind Dir Wind Speed Gust Speed Precip Events Conditions
12:17 AM 44.4 °F - 44.4 °F 100% 30.08 in 5.0 mi Calm Calm - N/A   Overcast
12:37 AM 44.6 °F 39.7 °F 44.6 °F 100% 30.07 in 5.0 mi East 9.2 mph - N/A   Overcast
12:57 AM 45.0 °F 39.3 °F 45.0 °F 100% 30.04 in 5.0 mi East 11.5 mph - 0.01 in   Mostly Cloudy
1:17 AM 45.1 °F 39.9 °F 45.1 °F 100% 30.04 in 5.0 mi East 10.4 mph - N/A   Mostly Cloudy
1:37 AM 45.5 °F 41.3 °F 45.5 °F 100% 30.04 in 5.0 mi East 8.1 mph - N/A   Overcast
1:57 AM 45.9 °F 42.9 °F 45.9 °F 100% 30.07 in 5.0 mi NE 5.8 mph - N/A   Overcast
2:17 AM 45.7 °F 42.7 °F 45.7 °F 100% 30.07 in 3.0 mi NNW 5.8 mph - N/A   Drizzle
2:37 AM 45.7 °F - 45.7 °F 100% 30.06 in 2.0 mi Calm Calm - N/A   Heavy Drizzle
2:57 AM 45.7 °F - 45.7 °F 100% 30.05 in 2.0 mi Calm Calm - 0.01 in   Light Drizzle
3:17 AM 45.9 °F - 45.9 °F 100% 30.04 in 2.0 mi Calm Calm - N/A Rain Rain
3:37 AM 46.0 °F - 46.0 °F 100% 30.02 in 1.8 mi Calm Calm - N/A   Overcast
3:57 AM 46.4 °F - 46.4 °F 100% 30.02 in 2.5 mi Calm Calm - N/A   Overcast
4:17 AM 45.7 °F 44.4 °F 45.7 °F 100% 30.02 in 1.2 mi NNW 3.5 mph - N/A   Overcast
4:37 AM 45.7 °F 43.4 °F 45.7 °F 100% 30.02 in 1.5 mi North 4.6 mph - N/A   Overcast
4:58 AM 45.7 °F 42.0 °F 45.7 °F 100% 30.04 in 1.5 mi NW 6.9 mph - N/A   Overcast
5:18 AM 44.8 °F - 44.8 °F 100% 30.05 in 1.2 mi Calm Calm - N/A   Light Drizzle
5:28 AM 44.8 °F - 44.8 °F 100% 30.06 in 1.2 mi Calm Calm - N/A   Light Drizzle
5:50 AM 44.6 °F 41.4 °F 44.6 °F 100% 30.06 in 2.0 mi North 5.8 mph - N/A   Overcast
6:50 AM 44.6 °F - 44.6 °F 100% 30.06 in 2.0 mi Calm Calm - N/A   Overcast
7:50 AM 44.6 °F - 44.6 °F 100% 30.08 in 1.0 mi Calm Calm - N/A   Overcast
9:50 AM 46.4 °F - 46.4 °F 100% 30.08 in 0.5 mi Calm Calm - N/A Fog Heavy Fog
10:50 AM 48.2 °F - 48.2 °F 100% 30.09 in 0.2 mi Calm Calm - N/A Fog Heavy Fog
11:50 AM 50.0 °F - 50.0 °F 100% 30.07 in 0.4 mi Calm Calm - N/A Fog Fog
12:50 PM 50.0 °F - 50.0 °F 100% 30.07 in 0.5 mi West 3.5 mph - N/A Fog Fog
1:50 PM 50.0 °F - 50.0 °F 100% 30.06 in 0.6 mi Calm Calm - N/A Fog Fog
2:50 PM 50.0 °F - 50.0 °F 100% 30.08 in 0.6 mi Calm Calm - N/A Fog Fog
3:50 PM 50.0 °F - 50.0 °F 100% 30.08 in 0.1 mi Calm Calm - N/A Fog Fog
4:46 PM 50.0 °F - 50.0 °F 100% 30.08 in 0.2 mi Calm Calm - N/A Fog Fog
5:50 PM 48.2 °F - 48.2 °F 100% 30.08 in 0.2 mi Calm Calm - N/A Fog Fog
6:50 PM 48.2 °F - 48.2 °F 100% 30.08 in 0.5 mi Calm Calm - N/A Fog Fog
7:50 PM 48.2 °F - 48.2 °F 100% 30.07 in 0.5 mi Calm Calm - N/A Fog Fog
9:40 PM 48.4 °F - 48.4 °F 100% 30.08 in 0.5 mi Calm Calm - N/A Fog Fog
10:00 PM 48.4 °F - 48.4 °F 100% 30.09 in 0.5 mi Calm Calm - N/A Fog Fog
10:20 PM 48.2 °F - 48.2 °F 100% 30.09 in 0.5 mi Calm Calm - N/A Fog Fog
10:40 PM 48.4 °F - 48.4 °F 100% 30.08 in 0.2 mi Calm Calm - N/A Fog Fog
11:00 PM 48.6 °F - 48.6 °F 100% 30.09 in 0.2 mi Calm Calm - N/A Fog Fog
11:20 PM 48.6 °F - 48.6 °F 100% 30.08 in 0.2 mi Calm Calm - N/A Fog Fog
11:40 PM 48.2 °F - 48.2 °F 100% 30.08 in 0.2 mi Calm Calm - N/A Fog Fog